Location: Paddlesworth
(51.1000°N, 1.1333°E)
Time: 08:25:34
(UTC+00:00)

Meteor 2-4 Rocket - Pass Details

Date: 11 May 2021
Orbit: 799 x 909 km, 81.2° (Epoch: 20 June)

Event Time Altitude Azimuth Distance (km) Brightness Sun altitude
Exits shadow 22:47:04 31° 136° (SE) 1,478 4.5 -19.3°
Maximum altitude 22:49:02 42° 93° (E) 1,225 4.4 -19.4°
Drops below altitude 10° 22:54:16 10° 24° (NNE) 2,480 6.8 -19.6°
Sets 22:56:46 0° 18° (NNE) 3,403 7.8 -19.7°
